• In Portugal
  • List of Countries
  • For 7 days
  • Water Temperature
  • Satellite Maps
  • Weather Map
  • Weather Widgets
  • user-avatar
    Login

    Hourly Weather Zenica

    Today, 25 September, Tuesday

    Time Temperature Precipitation Wind Pressure Humidity
    00:00 +2°C° 0 mm 2 mps 684 mmHg 87%
    01:00 +2°C° 0 mm 2 mps 684 mmHg 88%
    02:00 +2°C° 0 mm 2 mps 684 mmHg 88%
    03:00 +2°C° 0 mm 2 mps 684 mmHg 88%
    04:00 +1°C° 0 mm 2 mps 684 mmHg 88%
    05:00 +2°C° 0 mm 2 mps 685 mmHg 86%
    06:00 +2°C° 0 mm 2 mps 685 mmHg 84%
    07:00 +3°C° 0 mm 2 mps 686 mmHg 82%
    08:00 +4°C° 0 mm 3 mps 686 mmHg 73%
    09:00 +5°C° 0 mm 4 mps 687 mmHg 64%
    10:00 +7°C° 0 mm 5 mps 687 mmHg 55%
    11:00 +7°C° 0 mm 5 mps 687 mmHg 51%
    12:00 +8°C° 0 mm 5 mps 687 mmHg 47%
    13:00 +9°C° 0 mm 5 mps 687 mmHg 43%
    14:00 +8°C° 0 mm 5 mps 687 mmHg 44%
    15:00 +8°C° 0 mm 5 mps 687 mmHg 45%
    16:00 +7°C° 0 mm 5 mps 687 mmHg 46%
    17:00 +6°C° 0 mm 4 mps 687 mmHg 53%
    18:00 +4°C° 0 mm 3 mps 687 mmHg 60%
    19:00 +2°C° 0 mm 3 mps 687 mmHg 67%
    20:00 +2°C° 0 mm 2 mps 687 mmHg 69%
    21:00 +2°C° 0 mm 2 mps 687 mmHg 71%
    22:00 +1°C° 0 mm 2 mps 687 mmHg 73%
    23:00 +1°C° 0 mm 2 mps 687 mmHg 75%

    Tomorrow, 26 September, Wednesday

    Time Temperature Precipitation Wind Pressure Humidity
    00:00 -1°C° 0 mm 2 mps 688 mmHg 76%
    01:00 -1°C° 0 mm 2 mps 688 mmHg 77%
    02:00 -1°C° 0 mm 2 mps 688 mmHg 79%
    03:00 -2°C° 0 mm 2 mps 687 mmHg 80%
    04:00 0°C° 0 mm 1 mps 687 mmHg 82%
    05:00 +1°C° 0 mm 1 mps 688 mmHg 78%
    06:00 +2°C° 0 mm 1 mps 688 mmHg 74%
    07:00 +3°C° 0 mm 1 mps 689 mmHg 70%
    08:00 +4°C° 0 mm 2 mps 689 mmHg 60%
    09:00 +7°C° 0 mm 2 mps 690 mmHg 50%
    10:00 +9°C° 0 mm 3 mps 691 mmHg 40%
    11:00 +10°C° 0 mm 3 mps 691 mmHg 38%
    12:00 +11°C° 0 mm 3 mps 690 mmHg 36%
    13:00 +12°C° 0 mm 3 mps 690 mmHg 34%
    14:00 +11°C° 0 mm 3 mps 690 mmHg 36%
    15:00 +12°C° 0 mm 2 mps 689 mmHg 38%
    16:00 +12°C° 0 mm 2 mps 689 mmHg 40%
    17:00 +8°C° 0 mm 2 mps 689 mmHg 47%
    18:00 +7°C° 0 mm 1 mps 688 mmHg 55%
    19:00 +4°C° 0 mm 1 mps 688 mmHg 63%
    20:00 +4°C° 0 mm 1 mps 688 mmHg 64%
    21:00 +3°C° 0 mm 1 mps 688 mmHg 66%
    22:00 +3°C° 0 mm 1 mps 688 mmHg 67%
    23:00 +3°C° 0 mm 1 mps 688 mmHg 66%

    Day after tomorrow, 27 September, Thursday

    Time Temperature Precipitation Wind Pressure Humidity
    00:00 +3°C° 0 mm 1 mps 688 mmHg 66%
    01:00 +3°C° 0 mm 1 mps 687 mmHg 65%
    02:00 +3°C° 0 mm 1 mps 687 mmHg 63%
    03:00 +3°C° 0 mm 1 mps 687 mmHg 61%
    04:00 +3°C° 0 mm 1 mps 686 mmHg 59%
    05:00 +4°C° 0 mm 1 mps 687 mmHg 56%
    06:00 +5°C° 0 mm 1 mps 687 mmHg 54%
    07:00 +6°C° 0 mm 1 mps 687 mmHg 51%
    08:00 +9°C° 0 mm 1 mps 687 mmHg 44%
    09:00 +12°C° 0 mm 1 mps 688 mmHg 37%
    10:00 +15°C° 0 mm 2 mps 688 mmHg 30%
    11:00 +16°C° 0 mm 2 mps 688 mmHg 28%
    12:00 +17°C° 0 mm 2 mps 688 mmHg 27%
    13:00 +17°C° 0 mm 2 mps 688 mmHg 26%
    14:00 +17°C° 0 mm 2 mps 687 mmHg 30%
    15:00 +16°C° 0 mm 2 mps 686 mmHg 33%
    16:00 +16°C° 0 mm 2 mps 686 mmHg 37%
    17:00 +13°C° 0 mm 2 mps 685 mmHg 43%
    18:00 +10°C° 0 mm 1 mps 684 mmHg 48%
    19:00 +8°C° 0 mm 1 mps 684 mmHg 54%
    20:00 +7°C° 0 mm 1 mps 684 mmHg 54%
    21:00 +7°C° 0 mm 1 mps 683 mmHg 55%
    22:00 +6°C° 0 mm 1 mps 683 mmHg 55%
    23:00 +6°C° 0 mm 1 mps 683 mmHg 54%

    28 September, Friday

    Time Temperature Precipitation Wind Pressure Humidity
    00:00 +6°C° 0 mm 1 mps 682 mmHg 53%
    01:00 +6°C° 0 mm 1 mps 682 mmHg 52%
    02:00 +6°C° 0 mm 1 mps 682 mmHg 52%
    03:00 +6°C° 0 mm 1 mps 681 mmHg 51%
    04:00 +5°C° 0 mm 1 mps 681 mmHg 50%
    05:00 +6°C° 0 mm 1 mps 681 mmHg 50%
    06:00 +7°C° 0 mm 1 mps 681 mmHg 50%
    07:00 +8°C° 0 mm 1 mps 681 mmHg 50%
    08:00 +11°C° 0 mm 1 mps 682 mmHg 45%
    09:00 +14°C° 0 mm 1 mps 682 mmHg 41%
    10:00 +18°C° 0 mm 1 mps 683 mmHg 36%
    11:00 +18°C° 0 mm 2 mps 682 mmHg 36%
    12:00 +19°C° 0 mm 2 mps 682 mmHg 36%
    13:00 +20°C° 0 mm 2 mps 682 mmHg 36%
    14:00 +19°C° 0 mm 2 mps 681 mmHg 39%
    15:00 +19°C° 0 mm 2 mps 681 mmHg 42%
    16:00 +18°C° 0 mm 2 mps 681 mmHg 45%
    17:00 +15°C° 0 mm 1 mps 680 mmHg 53%
    18:00 +13°C° 0 mm 1 mps 679 mmHg 60%
    19:00 +10°C° 0 mm 1 mps 679 mmHg 67%
    20:00 +9°C° 0 mm 1 mps 679 mmHg 68%
    21:00 +9°C° 0 mm 1 mps 679 mmHg 69%
    22:00 +9°C° 0 mm 1 mps 679 mmHg 69%
    23:00 +8°C° 0 mm 1 mps 678 mmHg 70%

    29 September, Saturday

    Time Temperature Precipitation Wind Pressure Humidity
    00:00 +8°C° 0 mm 1 mps 678 mmHg 70%
    01:00 +8°C° 0 mm 1 mps 678 mmHg 70%
    02:00 +8°C° 0 mm 1 mps 678 mmHg 71%
    03:00 +8°C° 0 mm 1 mps 678 mmHg 71%
    04:00 +8°C° 0 mm 1 mps 677 mmHg 72%
    05:00 +8°C° 0 mm 1 mps 678 mmHg 70%
    06:00 +9°C° 0 mm 1 mps 678 mmHg 69%
    07:00 +10°C° 0 mm 1 mps 678 mmHg 67%
    08:00 +12°C° 0 mm 1 mps 679 mmHg 59%
    09:00 +15°C° 0 mm 1 mps 680 mmHg 51%
    10:00 +18°C° 0 mm 1 mps 681 mmHg 43%
    11:00 +18°C° 0 mm 2 mps 680 mmHg 42%
    12:00 +19°C° 0 mm 2 mps 680 mmHg 41%
    13:00 +19°C° 0 mm 2 mps 680 mmHg 40%
    14:00 +19°C° 0 mm 2 mps 680 mmHg 43%
    15:00 +18°C° 0 mm 2 mps 680 mmHg 46%
    16:00 +17°C° 0 mm 2 mps 680 mmHg 49%
    17:00 +15°C° 0 mm 2 mps 680 mmHg 58%
    18:00 +12°C° 0 mm 2 mps 679 mmHg 67%
    19:00 +10°C° 0 mm 1 mps 679 mmHg 76%
    20:00 +9°C° 0 mm 1 mps 679 mmHg 78%
    21:00 +9°C° 0 mm 1 mps 679 mmHg 81%
    22:00 +8°C° 0 mm 1 mps 680 mmHg 84%
    23:00 +8°C° 0 mm 1 mps 679 mmHg 86%

    30 September, Sunday

    Time Temperature Precipitation Wind Pressure Humidity
    00:00 +7°C° 0 mm 1 mps 679 mmHg 88%
    01:00 +7°C° 0 mm 1 mps 679 mmHg 89%
    02:00 +7°C° 0 mm 1 mps 679 mmHg 90%
    03:00 +7°C° 0 mm 1 mps 679 mmHg 90%
    04:00 +6°C° 0 mm 1 mps 679 mmHg 90%
    05:00 +7°C° 0 mm 1 mps 679 mmHg 87%
    06:00 +8°C° 0 mm 1 mps 679 mmHg 84%
    07:00 +9°C° 0 mm 1 mps 680 mmHg 81%
    08:00 +11°C° 0 mm 1 mps 680 mmHg 71%
    09:00 +14°C° 0 mm 1 mps 681 mmHg 61%
    10:00 +18°C° 0 mm 1 mps 681 mmHg 51%
    11:00 +19°C° 0 mm 1 mps 681 mmHg 49%
    12:00 +20°C° 0 mm 1 mps 681 mmHg 46%
    13:00 +21°C° 0 mm 1 mps 681 mmHg 44%
    14:00 +20°C° 0 mm 1 mps 680 mmHg 48%
    15:00 +19°C° 0 mm 1 mps 680 mmHg 53%
    16:00 +18°C° 0 mm 1 mps 679 mmHg 57%
    17:00 +15°C° 0 mm 1 mps 679 mmHg 65%
    18:00 +12°C° 0 mm 0 mps 679 mmHg 73%
    19:00 +10°C° 0 mm 0 mps 678 mmHg 81%
    20:00 +9°C° 0 mm 0 mps 678 mmHg 82%
    21:00 +9°C° 0 mm 0 mps 678 mmHg 84%
    22:00 +10°C° 0 mm 1 mps 678 mmHg 85%
    23:00 +9°C° 0 mm 1 mps 678 mmHg 86%
    Show more